Time,TemperatureF,DewpointF,PressureIn,WindDirection,WindDirectionDegrees,WindSpeedMPH,WindSpeedGustMPH,Humidity,HourlyPrecipIn,Conditions,Clouds,dailyrainin,SoftwareType,DateUTC
2013-05-15 00:02:00,90.0,41.0,-100.00,NW,305,22.0,31.0,18,0.00,,,0.00,,2013-05-15 00:02:00,
2013-05-15 00:11:00,90.0,41.0,-100.00,WNW,300,18.0,31.0,18,0.00,,,0.00,,2013-05-15 00:11:00,
2013-05-15 00:21:00,89.0,41.0,-100.00,WNW,295,24.0,29.0,18,0.00,,,0.00,,2013-05-15 00:21:00,
2013-05-15 00:32:00,88.0,41.0,-100.00,NW,305,26.0,33.0,18,0.00,,,0.00,,2013-05-15 00:32:00,
2013-05-15 00:41:00,87.0,37.0,-100.00,NW,315,24.0,39.0,17,0.00,,,0.00,,2013-05-15 00:41:00,
2013-05-15 00:51:00,85.0,36.0,-100.00,NW,310,21.0,32.0,16,0.00,,,0.00,,2013-05-15 00:51:00,
2013-05-15 01:01:00,84.0,36.0,-100.00,WNW,300,26.0,34.0,17,0.00,,,0.00,,2013-05-15 01:01:00,
2013-05-15 01:11:00,83.0,34.0,-100.00,NW,305,19.0,31.0,17,0.00,,,0.00,,2013-05-15 01:11:00,
2013-05-15 01:21:00,82.0,34.0,-100.00,NW,310,19.0,27.0,17,0.00,,,0.00,,2013-05-15 01:21:00,
2013-05-15 01:31:00,81.0,34.0,-100.00,NW,310,16.0,22.0,17,0.00,,,0.00,,2013-05-15 01:31:00,
2013-05-15 01:42:00,81.0,34.0,-100.00,NW,310,17.0,24.0,17,0.00,,,0.00,,2013-05-15 01:42:00,
2013-05-15 01:52:00,80.0,34.0,-100.00,NW,310,15.0,22.0,18,0.00,,,0.00,,2013-05-15 01:52:00,
2013-05-15 02:02:00,79.0,32.0,-100.00,NW,310,16.0,21.0,18,0.00,,,0.00,,2013-05-15 02:02:00,
2013-05-15 02:11:00,78.0,32.0,-100.00,NW,310,12.0,20.0,18,0.00,,,0.00,,2013-05-15 02:11:00,
2013-05-15 02:21:00,77.0,32.0,-100.00,NW,310,13.0,18.0,19,0.00,,,0.00,,2013-05-15 02:21:00,
2013-05-15 02:31:00,76.0,32.0,-100.00,NW,305,11.0,17.0,20,0.00,,,0.00,,2013-05-15 02:31:00,
2013-05-15 02:42:00,76.0,34.0,-100.00,NW,305,11.0,14.0,20,0.00,,,0.00,,2013-05-15 02:42:00,
2013-05-15 02:52:00,76.0,34.0,-100.00,NW,305,12.0,17.0,21,0.00,,,0.00,,2013-05-15 02:52:00,
2013-05-15 03:01:00,74.0,34.0,-100.00,NW,305,11.0,15.0,22,0.00,,,0.00,,2013-05-15 03:01:00,
2013-05-15 03:12:00,74.0,34.0,-100.00,NW,315,10.0,15.0,22,0.00,,,0.00,,2013-05-15 03:12:00,
2013-05-15 03:22:00,73.0,34.0,-100.00,NW,310,12.0,16.0,23,0.00,,,0.00,,2013-05-15 03:22:00,
2013-05-15 03:33:00,74.0,36.0,-100.00,NW,320,16.0,24.0,24,0.00,,,0.00,,2013-05-15 03:33:00,
2013-05-15 03:44:00,73.0,36.0,-100.00,NW,320,14.0,19.0,25,0.00,,,0.00,,2013-05-15 03:44:00,
2013-05-15 03:54:00,73.0,37.0,-100.00,NW,320,14.0,19.0,26,0.00,,,0.00,,2013-05-15 03:54:00,
2013-05-15 04:03:00,72.0,37.0,-100.00,NW,315,14.0,20.0,27,0.00,,,0.00,,2013-05-15 04:03:00,
2013-05-15 04:12:00,72.0,37.0,-100.00,NW,315,16.0,22.0,28,0.00,,,0.00,,2013-05-15 04:12:00,
2013-05-15 04:24:00,71.0,39.0,-100.00,NW,320,13.0,24.0,30,0.00,,,0.00,,2013-05-15 04:24:00,
2013-05-15 04:33:00,71.0,39.0,-100.00,NW,315,14.0,19.0,31,0.00,,,0.00,,2013-05-15 04:33:00,
2013-05-15 04:42:00,70.0,41.0,-100.00,NW,320,17.0,22.0,33,0.00,,,0.00,,2013-05-15 04:42:00,
2013-05-15 04:52:00,70.0,41.0,-100.00,NW,320,16.0,24.0,35,0.00,,,0.00,,2013-05-15 04:52:00,
2013-05-15 05:02:00,69.0,43.0,-100.00,NW,320,16.0,22.0,37,0.00,,,0.00,,2013-05-15 05:02:00,
2013-05-15 05:12:00,68.0,43.0,-100.00,NW,325,14.0,26.0,39,0.00,,,0.00,,2013-05-15 05:12:00,
2013-05-15 05:22:00,68.0,45.0,-100.00,NW,325,16.0,27.0,41,0.00,,,0.00,,2013-05-15 05:22:00,
2013-05-15 05:32:00,67.0,45.0,-100.00,NW,320,17.0,24.0,42,0.00,,,0.00,,2013-05-15 05:32:00,
2013-05-15 05:42:00,67.0,45.0,-100.00,NW,315,16.0,23.0,44,0.00,,,0.00,,2013-05-15 05:42:00,
2013-05-15 05:52:00,66.0,45.0,-100.00,NW,320,16.0,19.0,45,0.00,,,0.00,,2013-05-15 05:52:00,
2013-05-15 06:02:00,65.0,45.0,-100.00,NW,320,14.0,20.0,47,0.00,,,0.00,,2013-05-15 06:02:00,
2013-05-15 06:11:00,65.0,45.0,-100.00,NW,315,14.0,19.0,47,0.00,,,0.00,,2013-05-15 06:11:00,
2013-05-15 06:21:00,65.0,46.0,-100.00,NW,325,15.0,19.0,50,0.00,,,0.00,,2013-05-15 06:21:00,
2013-05-15 06:32:00,64.0,46.0,-100.00,NW,315,13.0,19.0,50,0.00,,,0.00,,2013-05-15 06:32:00,
2013-05-15 06:41:00,63.0,46.0,-100.00,NW,315,12.0,16.0,52,0.00,,,0.00,,2013-05-15 06:41:00,
2013-05-15 06:51:00,63.0,46.0,-100.00,NW,325,14.0,24.0,53,0.00,,,0.00,,2013-05-15 06:51:00,
2013-05-15 07:01:00,63.0,46.0,-100.00,NW,320,14.0,21.0,54,0.00,,,0.00,,2013-05-15 07:01:00,
2013-05-15 07:11:00,63.0,46.0,-100.00,NW,320,14.0,21.0,55,0.00,,,0.00,,2013-05-15 07:11:00,
2013-05-15 07:21:00,62.0,46.0,-100.00,NW,325,14.0,20.0,56,0.00,,,0.00,,2013-05-15 07:21:00,
2013-05-15 07:32:00,62.0,46.0,-100.00,NNW,335,15.0,22.0,56,0.00,,,0.00,,2013-05-15 07:32:00,
2013-05-15 07:41:00,62.0,46.0,-100.00,NNW,335,12.0,18.0,57,0.00,,,0.00,,2013-05-15 07:41:00,
2013-05-15 07:52:00,61.0,46.0,-100.00,NNW,340,12.0,19.0,57,0.00,,,0.00,,2013-05-15 07:52:00,
2013-05-15 08:02:00,61.0,46.0,-100.00,NNW,340,11.0,17.0,58,0.00,,,0.00,,2013-05-15 08:02:00,
2013-05-15 08:12:00,60.0,46.0,-100.00,NNW,345,10.0,15.0,59,0.00,,,0.00,,2013-05-15 08:12:00,
2013-05-15 08:21:00,60.0,46.0,-100.00,North,0,8.0,14.0,60,0.00,,,0.00,,2013-05-15 08:21:00,
2013-05-15 08:32:00,60.0,46.0,-100.00,North,0,10.0,13.0,60,0.00,,,0.00,,2013-05-15 08:32:00,
2013-05-15 08:42:00,59.0,46.0,-100.00,North,0,7.0,14.0,61,0.00,,,0.00,,2013-05-15 08:42:00,
2013-05-15 08:52:00,58.0,46.0,-100.00,North,350,7.0,10.0,62,0.00,,,0.00,,2013-05-15 08:52:00,
2013-05-15 09:01:00,58.0,46.0,-100.00,North,355,6.0,9.0,63,0.00,,,0.00,,2013-05-15 09:01:00,
2013-05-15 09:11:00,57.0,46.0,-100.00,North,350,6.0,9.0,64,0.00,,,0.00,,2013-05-15 09:11:00,
2013-05-15 09:21:00,57.0,46.0,-100.00,NW,320,7.0,10.0,65,0.00,,,0.00,,2013-05-15 09:21:00,
2013-05-15 09:33:00,56.0,46.0,-100.00,WNW,300,7.0,10.0,69,0.00,,,0.00,,2013-05-15 09:33:00,
2013-05-15 09:42:00,56.0,46.0,-100.00,WNW,295,6.0,7.0,71,0.00,,,0.00,,2013-05-15 09:42:00,
2013-05-15 09:53:00,55.0,46.0,-100.00,WNW,295,6.0,7.0,70,0.00,,,0.00,,2013-05-15 09:53:00,
2013-05-15 10:02:00,54.0,46.0,-100.00,NW,310,6.0,7.0,75,0.00,,,0.00,,2013-05-15 10:02:00,
2013-05-15 10:12:00,54.0,46.0,-100.00,NW,315,8.0,9.0,76,0.00,,,0.00,,2013-05-15 10:12:00,
2013-05-15 10:22:00,54.0,48.0,-100.00,NW,325,7.0,9.0,77,0.00,,,0.00,,2013-05-15 10:22:00,
2013-05-15 10:32:00,54.0,46.0,-100.00,NNW,330,7.0,10.0,76,0.00,,,0.00,,2013-05-15 10:32:00,
2013-05-15 10:42:00,54.0,46.0,-100.00,NW,320,7.0,9.0,76,0.00,,,0.00,,2013-05-15 10:42:00,
2013-05-15 10:52:00,54.0,46.0,-100.00,NW,325,7.0,9.0,76,0.00,,,0.00,,2013-05-15 10:52:00,
2013-05-15 11:08:00,53.0,46.0,-100.00,NW,320,6.0,7.0,78,0.00,,,0.00,,2013-05-15 11:08:00,
2013-05-15 11:17:00,53.0,46.0,-100.00,NW,320,6.0,8.0,79,0.00,,,0.00,,2013-05-15 11:17:00,
2013-05-15 11:26:00,53.0,46.0,-100.00,NW,310,7.0,7.0,79,0.00,,,0.00,,2013-05-15 11:26:00,
2013-05-15 11:35:00,53.0,46.0,-100.00,NW,310,6.0,7.0,79,0.00,,,0.00,,2013-05-15 11:35:00,
2013-05-15 11:47:00,54.0,46.0,-100.00,NW,320,8.0,9.0,78,0.00,,,0.00,,2013-05-15 11:47:00,
2013-05-15 11:55:00,55.0,48.0,-100.00,NNW,330,7.0,9.0,76,0.00,,,0.00,,2013-05-15 11:55:00,
2013-05-15 12:06:00,55.0,48.0,-100.00,NNW,340,7.0,10.0,75,0.00,,,0.00,,2013-05-15 12:06:00,
2013-05-15 12:13:00,56.0,48.0,-100.00,North,350,7.0,10.0,73,0.00,,,0.00,,2013-05-15 12:13:00,
2013-05-15 12:26:00,57.0,48.0,-100.00,North,355,7.0,10.0,71,0.00,,,0.00,,2013-05-15 12:26:00,
2013-05-15 12:35:00,58.0,48.0,-100.00,NNW,345,7.0,12.0,69,0.00,,,0.00,,2013-05-15 12:35:00,
2013-05-15 12:46:00,59.0,48.0,-100.00,NNW,335,9.0,12.0,68,0.00,,,0.00,,2013-05-15 12:46:00,
2013-05-15 12:54:00,60.0,48.0,-100.00,North,350,11.0,17.0,66,0.00,,,0.00,,2013-05-15 12:54:00,
2013-05-15 13:08:00,60.0,48.0,-100.00,NNW,335,12.0,18.0,64,0.00,,,0.00,,2013-05-15 13:08:00,
2013-05-15 13:15:00,60.0,48.0,-100.00,NNW,335,11.0,16.0,65,0.00,,,0.00,,2013-05-15 13:15:00,
2013-05-15 13:24:00,61.0,48.0,-100.00,NNW,340,9.0,12.0,64,0.00,,,0.00,,2013-05-15 13:24:00,
2013-05-15 13:35:00,61.0,48.0,-100.00,North,350,8.0,12.0,63,0.00,,,0.00,,2013-05-15 13:35:00,
2013-05-15 13:46:00,62.0,50.0,-100.00,North,0,7.0,11.0,62,0.00,,,0.00,,2013-05-15 13:46:00,
2013-05-15 13:55:00,63.0,48.0,-100.00,North,350,7.0,11.0,60,0.00,,,0.00,,2013-05-15 13:55:00,
2013-05-15 14:05:00,63.0,48.0,-100.00,North,5,10.0,11.0,58,0.00,,,0.00,,2013-05-15 14:05:00,
2013-05-15 14:25:00,62.0,48.0,-100.00,NE,35,17.0,22.0,60,0.00,,,0.00,,2013-05-15 14:25:00,
2013-05-15 14:36:00,62.0,48.0,-100.00,North,5,9.0,17.0,60,0.00,,,0.00,,2013-05-15 14:36:00,
2013-05-15 14:44:00,62.0,48.0,-100.00,NNE,20,7.0,9.0,60,0.00,,,0.00,,2013-05-15 14:44:00,
2013-05-15 14:52:00,62.0,48.0,-100.00,ENE,60,3.0,8.0,60,0.00,,,0.00,,2013-05-15 14:52:00,
2013-05-15 15:08:00,62.0,50.0,-100.00,NW,315,2.0,4.0,63,0.00,,,0.00,,2013-05-15 15:08:00,
2013-05-15 15:15:00,62.0,50.0,-100.00,SSW,200,2.0,2.0,61,0.00,,,0.00,,2013-05-15 15:15:00,
2013-05-15 15:27:00,62.0,48.0,-100.00,SSW,210,2.0,3.0,60,0.00,,,0.00,,2013-05-15 15:27:00,
2013-05-15 15:36:00,61.0,50.0,-100.00,WNW,300,2.0,5.0,66,0.00,,,0.00,,2013-05-15 15:36:00,
2013-05-15 16:08:00,60.0,52.0,-100.00,West,275,2.0,5.0,75,0.00,,,0.00,,2013-05-15 16:08:00,
2013-05-15 16:27:00,59.0,55.0,-100.00,WSW,250,6.0,7.0,85,0.00,,,0.00,,2013-05-15 16:27:00,
2013-05-15 16:35:00,59.0,54.0,-100.00,WSW,240,9.0,10.0,84,0.00,,,0.00,,2013-05-15 16:35:00,
2013-05-15 16:47:00,60.0,54.0,-100.00,SW,230,6.0,10.0,80,0.00,,,0.00,,2013-05-15 16:47:00,
2013-05-15 16:53:00,60.0,54.0,-100.00,WSW,240,7.0,9.0,80,0.00,,,0.00,,2013-05-15 16:53:00,
2013-05-15 17:08:00,60.0,54.0,-100.00,SW,235,6.0,9.0,77,0.00,,,0.00,,2013-05-15 17:08:00,
2013-05-15 17:16:00,61.0,54.0,-100.00,WSW,255,7.0,9.0,75,0.00,,,0.00,,2013-05-15 17:16:00,
2013-05-15 17:26:00,62.0,54.0,-100.00,WSW,250,11.0,12.0,74,0.00,,,0.00,,2013-05-15 17:26:00,
2013-05-15 17:34:00,62.0,54.0,-100.00,WSW,240,9.0,13.0,74,0.00,,,0.00,,2013-05-15 17:34:00,
2013-05-15 17:45:00,62.0,54.0,-100.00,WSW,240,9.0,12.0,74,0.00,,,0.00,,2013-05-15 17:45:00,
2013-05-15 17:55:00,62.0,52.0,-100.00,WSW,240,10.0,12.0,72,0.00,,,0.00,,2013-05-15 17:55:00,
2013-05-15 18:05:00,63.0,54.0,-100.00,SW,235,9.0,13.0,71,0.00,,,0.00,,2013-05-15 18:05:00,
2013-05-15 18:26:00,65.0,52.0,-100.00,SW,220,9.0,13.0,61,0.00,,,0.00,,2013-05-15 18:26:00,
2013-05-15 18:35:00,66.0,52.0,-100.00,WSW,245,9.0,13.0,59,0.00,,,0.00,,2013-05-15 18:35:00,
2013-05-15 18:46:00,67.0,52.0,-100.00,SW,230,11.0,14.0,57,0.00,,,0.00,,2013-05-15 18:46:00,
2013-05-15 18:54:00,67.0,52.0,-100.00,SW,235,10.0,14.0,56,0.00,,,0.00,,2013-05-15 18:54:00,
2013-05-15 19:07:00,68.0,52.0,-100.00,SW,220,8.0,13.0,54,0.00,,,0.00,,2013-05-15 19:07:00,
2013-05-15 19:14:00,69.0,50.0,-100.00,SW,215,6.0,12.0,50,0.00,,,0.00,,2013-05-15 19:14:00,
2013-05-15 19:44:00,71.0,48.0,-100.00,SW,235,7.0,12.0,45,0.00,,,0.00,,2013-05-15 19:44:00,
2013-05-15 19:54:00,71.0,48.0,-100.00,West,265,6.0,11.0,44,0.00,,,0.00,,2013-05-15 19:54:00,
2013-05-15 20:06:00,72.0,48.0,-100.00,SW,235,6.0,12.0,44,0.00,,,0.00,,2013-05-15 20:06:00,
2013-05-15 20:15:00,72.0,48.0,-100.00,WSW,250,9.0,12.0,43,0.00,,,0.00,,2013-05-15 20:15:00,
2013-05-15 20:26:00,73.0,48.0,-100.00,SW,235,10.0,14.0,41,0.00,,,0.00,,2013-05-15 20:26:00,
2013-05-15 20:35:00,73.0,48.0,-100.00,WSW,240,4.0,14.0,40,0.00,,,0.00,,2013-05-15 20:35:00,
2013-05-15 20:45:00,73.0,48.0,-100.00,West,260,7.0,14.0,41,0.00,,,0.00,,2013-05-15 20:45:00,
2013-05-15 20:52:00,73.0,48.0,-100.00,West,270,6.0,13.0,41,0.00,,,0.00,,2013-05-15 20:52:00,
2013-05-15 21:07:00,74.0,48.0,-100.00,West,280,9.0,12.0,40,0.00,,,0.00,,2013-05-15 21:07:00,
2013-05-15 21:18:00,74.0,48.0,-100.00,West,280,7.0,12.0,39,0.00,,,0.00,,2013-05-15 21:18:00,
2013-05-15 21:26:00,75.0,48.0,-100.00,West,275,7.0,11.0,39,0.00,,,0.00,,2013-05-15 21:26:00,
2013-05-15 21:48:00,76.0,48.0,-100.00,West,265,9.0,13.0,36,0.00,,,0.00,,2013-05-15 21:48:00,
2013-05-15 21:55:00,76.0,46.0,-100.00,WNW,295,9.0,14.0,36,0.00,,,0.00,,2013-05-15 21:55:00,
2013-05-15 22:16:00,77.0,48.0,-100.00,WSW,255,11.0,14.0,35,0.00,,,0.00,,2013-05-15 22:16:00,
2013-05-15 22:27:00,76.0,46.0,-100.00,West,260,9.0,14.0,35,0.00,,,0.00,,2013-05-15 22:27:00,
2013-05-15 22:38:00,76.0,48.0,-100.00,WSW,245,12.0,18.0,35,0.00,,,0.00,,2013-05-15 22:38:00,
2013-05-15 22:47:00,77.0,48.0,-100.00,WSW,240,11.0,17.0,35,0.00,,,0.00,,2013-05-15 22:47:00,
2013-05-15 22:54:00,77.0,48.0,-100.00,West,260,12.0,16.0,36,0.00,,,0.00,,2013-05-15 22:54:00,
2013-05-15 23:07:00,77.0,48.0,-100.00,West,260,7.0,14.0,36,0.00,,,0.00,,2013-05-15 23:07:00,
2013-05-15 23:14:00,76.0,48.0,-100.00,WSW,245,15.0,19.0,36,0.00,,,0.00,,2013-05-15 23:14:00,
2013-05-15 23:27:00,76.0,48.0,-100.00,WSW,240,12.0,18.0,36,0.00,,,0.00,,2013-05-15 23:27:00,
2013-05-15 23:38:00,76.0,48.0,-100.00,WSW,255,12.0,17.0,37,0.00,,,0.00,,2013-05-15 23:38:00,
2013-05-15 23:47:00,75.0,48.0,-100.00,WSW,255,12.0,19.0,37,0.00,,,0.00,,2013-05-15 23:47:00,
2013-05-15 23:53:00,76.0,48.0,-100.00,SW,225,12.0,17.0,37,0.00,,,0.00,,2013-05-15 23:53:00,